• Em Portugal
  • Lista de países
  • Para 7 dias
  • Temperatura da água
  • Mapas de satélite
  • Mapa do tempo
  • Widgets de tempo
  • user-avatar
    Iniciar Sessão

    Previsão horária em Ghazni

    Hoje, 23 Novembro, Quinta-feira

    Tempo Temperatura Precipitação Vento Pressão Humidade
    00:00 +4°C° 0 mm 0 m/s 583 mmHg 27%
    01:00 +4°C° 0 mm 0 m/s 583 mmHg 27%
    02:00 +3°C° 0 mm 0 m/s 583 mmHg 28%
    03:00 +3°C° 0 mm 0 m/s 582 mmHg 28%
    04:00 +3°C° 0 mm 0 m/s 582 mmHg 29%
    05:00 +2°C° 0 mm 0 m/s 582 mmHg 30%
    06:00 +3°C° 0 mm 0 m/s 582 mmHg 31%
    07:00 +4°C° 0 mm 1 m/s 582 mmHg 33%
    08:00 +4°C° 0 mm 1 m/s 582 mmHg 34%
    09:00 +6°C° 0 mm 1 m/s 583 mmHg 31%
    10:00 +7°C° 0 mm 1 m/s 584 mmHg 29%
    11:00 +9°C° 0 mm 1 m/s 585 mmHg 28%
    12:00 +10°C° 0 mm 1 m/s 585 mmHg 28%
    13:00 +10°C° 0 mm 1 m/s 585 mmHg 28%
    14:00 +10°C° 0 mm 2 m/s 585 mmHg 28%
    15:00 +9°C° 0 mm 2 m/s 585 mmHg 30%
    16:00 +9°C° 0 mm 1 m/s 584 mmHg 32%
    17:00 +9°C° 0 mm 1 m/s 584 mmHg 34%
    18:00 +8°C° 0 mm 1 m/s 584 mmHg 34%
    19:00 +7°C° 0 mm 1 m/s 584 mmHg 35%
    20:00 +5°C° 0 mm 0 m/s 584 mmHg 36%
    21:00 +6°C° 0 mm 1 m/s 583 mmHg 36%
    22:00 +6°C° 0 mm 1 m/s 583 mmHg 37%
    23:00 +5°C° 0 mm 1 m/s 583 mmHg 37%

    Amanhã, 24 Novembro, Sexta-feira

    Tempo Temperatura Precipitação Vento Pressão Humidade
    00:00 +5°C° 0 mm 1 m/s 583 mmHg 37%
    01:00 +5°C° 0 mm 1 m/s 583 mmHg 37%
    02:00 +4°C° 0 mm 1 m/s 583 mmHg 38%
    03:00 +4°C° 0 mm 1 m/s 583 mmHg 38%
    04:00 +4°C° 0 mm 1 m/s 583 mmHg 38%
    05:00 +4°C° 0 mm 1 m/s 582 mmHg 38%
    06:00 +4°C° 0 mm 1 m/s 583 mmHg 38%
    07:00 +4°C° 0 mm 1 m/s 583 mmHg 37%
    08:00 +5°C° 0 mm 1 m/s 584 mmHg 36%
    09:00 +6°C° 0 mm 1 m/s 585 mmHg 32%
    10:00 +8°C° 0 mm 1 m/s 585 mmHg 28%
    11:00 +9°C° 0 mm 1 m/s 586 mmHg 23%
    12:00 +10°C° 0 mm 1 m/s 586 mmHg 23%
    13:00 +9°C° 0 mm 2 m/s 586 mmHg 22%
    14:00 +10°C° 0 mm 2 m/s 586 mmHg 21%
    15:00 +9°C° 0,2 mm 2 m/s 586 mmHg 31%
    16:00 +8°C° 0,2 mm 3 m/s 585 mmHg 40%
    17:00 +7°C° 0,2 mm 3 m/s 585 mmHg 50%
    18:00 +5°C° 0 mm 3 m/s 585 mmHg 55%
    19:00 +5°C° 0 mm 2 m/s 585 mmHg 60%
    20:00 +4°C° 0 mm 2 m/s 585 mmHg 65%
    21:00 +4°C° 0 mm 2 m/s 585 mmHg 66%
    22:00 +4°C° 0 mm 2 m/s 584 mmHg 66%
    23:00 +5°C° 0 mm 1 m/s 584 mmHg 66%

    Depois de amanhã, 25 Novembro, Sábado

    Tempo Temperatura Precipitação Vento Pressão Humidade
    00:00 +5°C° 0 mm 1 m/s 584 mmHg 66%
    01:00 +4°C° 0 mm 1 m/s 584 mmHg 66%
    02:00 +4°C° 0 mm 1 m/s 584 mmHg 67%
    03:00 +4°C° 0 mm 1 m/s 584 mmHg 66%
    04:00 +3°C° 0 mm 2 m/s 583 mmHg 66%
    05:00 +3°C° 0 mm 2 m/s 583 mmHg 66%
    06:00 +3°C° 0 mm 2 m/s 583 mmHg 65%
    07:00 +4°C° 0 mm 2 m/s 584 mmHg 64%
    08:00 +4°C° 0 mm 2 m/s 584 mmHg 63%
    09:00 +4°C° 0,6 mm 2 m/s 584 mmHg 67%
    10:00 +4°C° 0,6 mm 2 m/s 584 mmHg 71%
    11:00 +4°C° 0,6 mm 2 m/s 584 mmHg 75%
    12:00 +4°C° 0,7 mm 2 m/s 584 mmHg 79%
    13:00 +4°C° 0,7 mm 2 m/s 583 mmHg 84%
    14:00 +3°C° 0,7 mm 2 m/s 583 mmHg 88%
    15:00 +4°C° 0,1 mm 1 m/s 583 mmHg 89%
    16:00 +4°C° 0,1 mm 1 m/s 583 mmHg 89%
    17:00 +4°C° 0,1 mm 1 m/s 583 mmHg 90%
    18:00 +4°C° 0 mm 1 m/s 583 mmHg 90%
    19:00 +3°C° 0 mm 1 m/s 583 mmHg 89%
    20:00 +3°C° 0 mm 1 m/s 583 mmHg 89%
    21:00 +2°C° 0 mm 1 m/s 583 mmHg 89%
    22:00 +2°C° 0 mm 1 m/s 584 mmHg 89%
    23:00 +2°C° 0 mm 1 m/s 584 mmHg 88%

    26 Novembro, Domingo

    Tempo Temperatura Precipitação Vento Pressão Humidade
    00:00 +2°C° 0 mm 1 m/s 584 mmHg 88%
    01:00 +2°C° 0 mm 1 m/s 584 mmHg 87%
    02:00 +1°C° 0 mm 1 m/s 584 mmHg 87%
    03:00 +1°C° 0 mm 1 m/s 584 mmHg 86%
    04:00 +1°C° 0 mm 1 m/s 584 mmHg 85%
    05:00 +1°C° 0 mm 1 m/s 584 mmHg 84%
    06:00 +1°C° 0 mm 1 m/s 584 mmHg 83%
    07:00 +1°C° 0 mm 1 m/s 585 mmHg 81%
    08:00 +1°C° 0 mm 1 m/s 585 mmHg 80%
    09:00 +3°C° 0 mm 1 m/s 586 mmHg 74%
    10:00 +4°C° 0 mm 1 m/s 586 mmHg 68%
    11:00 +5°C° 0 mm 0 m/s 587 mmHg 63%
    12:00 +6°C° 0 mm 1 m/s 587 mmHg 60%
    13:00 +7°C° 0 mm 1 m/s 586 mmHg 57%
    14:00 +8°C° 0 mm 1 m/s 586 mmHg 54%
    15:00 +7°C° 0 mm 1 m/s 586 mmHg 58%
    16:00 +6°C° 0 mm 1 m/s 585 mmHg 62%
    17:00 +5°C° 0 mm 1 m/s 585 mmHg 67%
    18:00 +4°C° 0 mm 1 m/s 585 mmHg 68%
    19:00 +4°C° 0 mm 1 m/s 585 mmHg 69%
    20:00 +3°C° 0 mm 1 m/s 585 mmHg 70%
    21:00 +3°C° 0 mm 1 m/s 585 mmHg 68%
    22:00 +3°C° 0 mm 1 m/s 585 mmHg 67%
    23:00 +2°C° 0 mm 1 m/s 585 mmHg 65%

    27 Novembro, Segunda-feira

    Tempo Temperatura Precipitação Vento Pressão Humidade
    00:00 +2°C° 0 mm 1 m/s 585 mmHg 64%
    01:00 +2°C° 0 mm 1 m/s 584 mmHg 63%
    02:00 +2°C° 0 mm 1 m/s 584 mmHg 63%
    03:00 +2°C° 0 mm 1 m/s 584 mmHg 62%
    04:00 +1°C° 0 mm 1 m/s 584 mmHg 62%
    05:00 +1°C° 0 mm 1 m/s 583 mmHg 62%
    06:00 +1°C° 0 mm 1 m/s 584 mmHg 61%
    07:00 +2°C° 0 mm 1 m/s 584 mmHg 59%
    08:00 +2°C° 0 mm 1 m/s 584 mmHg 58%
    09:00 +3°C° 0 mm 1 m/s 585 mmHg 52%
    10:00 +5°C° 0 mm 1 m/s 585 mmHg 46%
    11:00 +7°C° 0 mm 1 m/s 586 mmHg 39%
    12:00 +7°C° 0 mm 1 m/s 586 mmHg 37%
    13:00 +7°C° 0 mm 2 m/s 585 mmHg 35%
    14:00 +8°C° 0 mm 2 m/s 585 mmHg 32%
    15:00 +7°C° 0 mm 2 m/s 585 mmHg 36%
    16:00 +6°C° 0 mm 2 m/s 584 mmHg 40%
    17:00 +6°C° 0 mm 1 m/s 584 mmHg 43%
    18:00 +6°C° 0 mm 1 m/s 584 mmHg 45%
    19:00 +5°C° 0 mm 1 m/s 584 mmHg 46%
    20:00 +4°C° 0 mm 1 m/s 584 mmHg 47%
    21:00 +4°C° 0 mm 1 m/s 584 mmHg 47%
    22:00 +4°C° 0 mm 1 m/s 584 mmHg 47%
    23:00 +3°C° 0 mm 1 m/s 584 mmHg 47%

    28 Novembro, Terça-feira

    Tempo Temperatura Precipitação Vento Pressão Humidade
    00:00 +3°C° 0 mm 1 m/s 583 mmHg 47%
    01:00 +3°C° 0 mm 1 m/s 583 mmHg 47%
    02:00 +3°C° 0 mm 1 m/s 583 mmHg 47%
    03:00 +2°C° 0 mm 1 m/s 583 mmHg 47%
    04:00 +2°C° 0 mm 1 m/s 582 mmHg 47%
    05:00 +2°C° 0 mm 1 m/s 582 mmHg 47%
    06:00 +2°C° 0 mm 1 m/s 582 mmHg 47%
    07:00 +3°C° 0 mm 1 m/s 583 mmHg 46%
    08:00 +3°C° 0 mm 1 m/s 583 mmHg 45%
    09:00 +5°C° 0 mm 1 m/s 584 mmHg 41%
    10:00 +6°C° 0 mm 1 m/s 584 mmHg 36%
    11:00 +8°C° 0 mm 1 m/s 585 mmHg 32%
    12:00 +9°C° 0 mm 1 m/s 585 mmHg 31%
    13:00 +9°C° 0 mm 1 m/s 584 mmHg 31%
    14:00 +10°C° 0 mm 1 m/s 584 mmHg 31%
    15:00 +9°C° 0 mm 1 m/s 584 mmHg 35%
    16:00 +9°C° 0 mm 1 m/s 584 mmHg 39%
    17:00 +8°C° 0 mm 1 m/s 583 mmHg 43%
    18:00 +7°C° 0 mm 0 m/s 584 mmHg 44%
    19:00 +6°C° 0 mm 0 m/s 584 mmHg 46%
    20:00 +5°C° 0 mm 0 m/s 584 mmHg 48%
    21:00 +5°C° 0 mm 0 m/s 584 mmHg 49%
    22:00 +5°C° 0 mm 0 m/s 583 mmHg 50%
    23:00 +4°C° 0 mm 0 m/s 583 mmHg 51%
    Mostrar mais